Location: Unspecified
(40.8819°N, 0.0000°E)
Time: 02:30:18
(UTC+00:00)

Envisat - Visible Passes

Search period start: 08 June 2026 00:00
Search period end: 18 June 2026 00:00
Orbit: 761 x 763 km, 98.4° (Epoch: 7 June)

Date Brightness Start Highest point End Pass type
(mag) Time Alt. Az. Time Alt. Az. Time Alt. Az.
8 Jun 4.1 01:59:50 10° NNE 02:04:30 36° E 02:07:38 18° SSE visible
8 Jun 4.2 03:39:03 10° N 03:43:14 27° WNW 03:47:24 10° WSW visible
9 Jun 5.3 01:23:19 10° NE 01:26:22 16° E 01:29:22 10° SE visible
9 Jun 3.2 03:00:41 10° N 03:05:39 58° WNW 03:09:29 17° SSW visible
10 Jun 3.3 02:22:50 10° NNE 02:27:52 61° E 02:31:14 21° S visible
11 Jun 4.6 01:45:37 10° NE 01:49:53 27° E 01:52:58 15° SE visible
11 Jun 3.8 03:24:14 10° N 03:28:49 35° WNW 03:33:05 12° SW visible
12 Jun 5.5 01:10:11 10° ENE 01:11:39 11° E 01:13:09 10° ESE visible
12 Jun 2.9 02:46:05 10° N 02:51:10 80° WNW 02:54:48 19° SSW visible
13 Jun 3.8 02:08:27 10° NNE 02:13:18 44° E 02:16:32 19° SSE visible
13 Jun 4.5 03:48:03 10° NNW 03:51:54 22° WNW 03:55:45 10° WSW visible
14 Jun 5.0 01:31:36 10° NE 01:35:12 19° E 01:38:16 12° SE visible
14 Jun 3.4 03:09:30 10° N 03:14:22 48° WNW 03:18:23 15° SW visible
15 Jun 3.1 02:31:33 10° NNE 02:36:38 75° ESE 02:40:06 20° S visible
16 Jun 4.3 01:54:08 10° NNE 01:58:41 32° E 02:01:50 17° SSE visible
16 Jun 4.1 03:33:09 10° N 03:37:30 30° WNW 03:41:50 10° SW visible
17 Jun 5.3 01:17:55 10° ENE 01:20:31 14° E 01:23:07 10° ESE visible
17 Jun 3.1 02:54:51 10° N 02:59:53 66° WNW 03:03:40 18° SSW visible
